FW8528 Weather Reports


Display with metric or nautical units.
time (UTC)temp
F
wind
direction
speed
MPH
gust
MPH
rain 1hr
in
rain 24hr
in
rain mn
in
humidity
%
barometer
mb
20260904054138 49 277 0.0 0.0 0.00 0.60 0.60 99 1010.3
20260904053638 49 277 0.0 0.0 0.00 0.60 0.60 99 1010.3
20260904053132 49 277 0.0 0.0 0.00 0.60 0.60 99 1010.6
20260904052629 49 277 0.0 0.0 0.00 0.60 0.60 99 1010.3
20260904052125 49 277 0.0 0.0 0.00 0.60 0.60 99 1010.6
20260904051621 49 277 0.0 0.0 0.00 0.60 0.60 99 1010.6
20260904051121 49 277 0.0 0.0 0.00 0.60 0.60 99 1010.3
20260904050616 49 277 0.0 0.0 0.00 0.60 0.60 99 1010.6
20260904050113 49 277 0.0 0.0 0.00 0.60 0.60 99 1010.6
20260904045607 50 277 0.0 0.0 0.00 0.60 0.60 99 1010.6
20260904045102 49 277 0.0 0.0 0.00 0.60 0.60 99 1010.6
20260904044557 49 277 0.0 0.0 0.00 0.60 0.60 99 1010.6
20260904044054 50 277 0.0 0.0 0.00 0.60 0.60 99 1010.6
20260904043550 50 277 0.0 0.0 0.00 0.60 0.60 99 1010.6
20260904043046 50 277 0.0 0.0 0.00 0.60 0.60 99 1010.6
20260904042542 50 277 0.0 0.0 0.00 0.60 0.60 99 1010.6
20260904042037 50 277 0.0 0.0 0.00 0.60 0.60 99 1010.6
20260904041532 51 278 0.0 0.0 0.00 0.60 0.60 99 1010.6
20260904041029 51 279 0.0 0.0 0.00 0.60 0.60 99 1010.6
20260904040528 51 275 0.0 0.0 0.00 0.60 0.60 99 1010.6
20260904040026 50 274 0.0 0.0 0.00 0.60 0.60 99 1010.3
20260904035525 50 274 0.0 0.0 0.00 0.60 0.60 99 1010.3
20260904035025 50 274 0.0 0.0 0.00 0.60 0.60 99 1010.3
20260904034520 51 274 0.0 0.0 0.00 0.60 0.60 99 1010.3
20260904034015 50 274 0.0 0.0 0.00 0.60 0.60 99 1010.3
20260904033511 50 274 0.0 0.0 0.00 0.60 0.60 99 1009.9
20260904033009 51 274 0.0 0.0 0.00 0.60 0.60 99 1010.3
20260904032503 51 274 0.0 0.0 0.00 0.60 0.60 99 1009.9
20260904032002 51 274 0.0 0.0 0.00 0.60 0.60 99 1009.9
20260904031457 51 274 0.0 0.0 0.00 0.60 0.60 99 1009.9
20260904030953 51 274 0.0 0.0 0.00 0.60 0.60 99 1009.9
20260904030449 51 274 0.0 0.0 0.00 0.60 0.60 99 1009.9
20260904025944 52 274 0.0 0.0 0.00 0.60 0.60 99 1009.9
20260904025440 52 274 0.0 0.0 0.00 0.60 0.60 99 1009.9
20260904024940 52 274 0.0 0.0 0.00 0.60 0.60 99 1009.9
20260904024435 52 274 0.0 0.0 0.00 0.60 0.60 99 1009.9
20260904023931 52 274 0.0 0.0 0.00 0.60 0.60 99 1009.6
20260904023427 53 274 0.0 0.0 0.00 0.60 0.60 99 1009.6
20260904022926 53 274 0.0 0.0 0.00 0.60 0.60 99 1009.6
20260904022423 53 274 0.0 0.0 0.00 0.60 0.60 99 1009.6
20260904021919 54 274 0.0 0.0 0.00 0.60 0.60 99 1009.6
20260904021414 54 274 0.0 0.0 0.00 0.60 0.60 99 1009.6
20260904020909 55 274 0.0 0.0 0.00 0.60 0.60 99 1009.6
20260904020405 55 274 0.0 0.0 0.00 0.60 0.60 99 1009.2
20260904015903 55 274 0.0 0.0 0.00 0.60 0.60 99 1009.6
20260904015359 55 275 0.0 0.0 0.00 0.60 0.60 99 1009.2
20260904014857 55 275 0.0 0.0 0.00 0.60 0.60 99 1009.2
20260904014352 56 275 0.0 0.0 0.00 0.60 0.60 99 1009.2
20260904013848 56 275 0.0 0.0 0.00 0.60 0.60 99 1009.2
20260904013344 56 275 0.0 0.0 0.00 0.60 0.60 99 1009.2
20260904012840 56 275 0.0 0.0 0.00 0.60 0.60 99 1009.2
20260904012334 57 274 0.0 0.0 0.00 0.60 0.60 99 1009.2
20260904011833 57 274 0.0 0.0 0.00 0.60 0.60 99 1009.2
20260904011329 57 275 0.0 0.0 0.00 0.60 0.60 99 1009.2
20260904010823 58 275 0.0 0.0 0.00 0.60 0.60 99 1008.9
20260904010321 57 275 0.0 0.0 0.00 0.60 0.60 99 1009.2
20260904005815 57 276 0.0 0.0 0.00 0.60 0.60 99 1009.2
20260904005311 57 264 0.0 0.0 0.00 0.60 0.60 99 1009.6
20260904004805 57 263 0.0 0.0 0.00 0.60 0.60 99 1009.2
20260904004301 58 263 0.0 0.0 0.00 0.60 0.60 99 1009.6
20260904003756 59 264 0.0 0.0 0.00 0.60 0.60 99 1009.6
20260904003253 58 263 0.0 0.0 0.00 0.60 0.60 99 1009.6
20260904002748 57 264 0.0 0.0 0.00 0.60 0.60 99 1009.6
20260904002245 56 263 0.0 1.0 0.00 0.60 0.60 99 1009.6
20260904001743 55 238 0.0 1.0 0.00 0.60 0.60 99 1009.6
20260904001238 55 273 0.0 0.0 0.00 0.60 0.60 99 1009.6
20260904000733 55 275 0.0 0.0 0.00 0.60 0.60 99 1009.6
20260904000228 56 273 0.0 1.0 0.00 0.60 0.60 99 1009.6
20260903235727 56 273 0.0 0.0 0.00 0.60 0.60 99 1009.6
20260903235224 56 272 0.0 0.0 0.00 0.60 0.60 99 1009.6
20260903234717 57 272 0.0 0.0 0.05 0.60 0.60 99 1009.6
20260903234214 56 272 0.0 0.0 0.12 0.60 0.60 99 1009.6
20260903233710 56 272 1.0 1.0 0.07 0.59 0.59 99 1009.6
20260903233206 56 279 1.0 1.0 0.00 0.58 0.58 99 1009.6
20260903232704 57 277 0.0 0.0 0.00 0.58 0.58 99 1009.6
20260903232201 57 277 0.0 0.0 0.00 0.58 0.58 99 1009.9
20260903231659 57 277 0.0 0.0 0.00 0.58 0.58 99 1009.9
20260903231154 57 277 0.0 0.0 0.00 0.58 0.58 99 1009.6
20260903230651 57 277 0.0 0.0 0.00 0.58 0.58 99 1009.6
20260903230150 57 277 0.0 0.0 0.00 0.58 0.58 99 1009.9
20260903225646 57 277 0.0 1.0 0.00 0.58 0.58 99 1009.6
20260903225143 57 276 0.0 0.0 0.00 0.58 0.58 99 1009.6
20260903224638 56 276 0.0 0.0 0.00 0.58 0.58 99 1009.9
20260903224135 56 277 0.0 1.0 0.00 0.58 0.58 99 1009.6
20260903223630 56 270 0.0 0.0 0.12 0.58 0.58 99 1009.6
20260903223128 57 266 0.0 0.0 0.43 0.58 0.58 99 1009.6
20260903222623 57 263 0.0 1.0 0.43 0.56 0.56 99 1009.6
20260903222122 57 260 0.0 0.0 0.07 0.50 0.50 99 1009.6
20260903221618 57 257 0.0 0.0 0.00 0.49 0.49 98 1009.6
20260903221115 58 258 0.0 0.0 0.00 0.49 0.49 96 1009.6
20260903220615 58 258 0.0 0.0 0.00 0.49 0.49 96 1009.2
20260903220115 59 258 0.0 0.0 0.00 0.49 0.49 96 1009.6
20260903215614 59 257 0.0 0.0 0.00 0.49 0.49 96 1009.6
20260903215108 59 258 0.0 0.0 0.00 0.49 0.49 92 1009.2
20260903214607 59 250 0.0 0.0 0.00 0.49 0.49 96 1009.6
20260903214103 59 242 0.0 0.0 0.00 0.49 0.49 97 1009.6
20260903213558 59 237 0.0 0.0 0.05 0.49 0.49 97 1009.6
20260903213054 59 263 0.0 0.0 0.05 0.49 0.49 98 1009.6
20260903212549 59 262 0.0 0.0 0.00 0.48 0.48 98 1009.2
20260903212045 59 252 0.0 0.0 0.00 0.48 0.48 96 1009.6
20260903211539 58 251 0.0 0.0 0.00 0.48 0.48 95 1009.2
20260903211036 59 251 0.0 0.0 0.00 0.48 0.48 91 1009.2
20260903210531 59 251 0.0 0.0 0.00 0.48 0.48 92 1009.6
20260903210027 59 278 0.0 0.0 0.00 0.48 0.48 95 1009.6
20260903205525 59 283 0.0 0.0 0.00 0.48 0.48 89 1009.2
20260903205020 59 326 0.0 1.0 0.00 0.48 0.48 88 1009.2
20260903204516 59 246 0.0 0.0 0.00 0.48 0.48 96 1009.2
20260903204011 59 246 0.0 0.0 0.00 0.48 0.48 94 1009.2
20260903203507 58 278 0.0 0.0 0.00 0.48 0.48 89 1009.2
20260903203007 58 298 1.0 1.0 0.00 0.48 0.48 85 1009.2
20260903202503 59 221 1.0 1.0 0.00 0.48 0.48 93 1009.2
20260903201957 58 230 1.0 1.0 0.00 0.48 0.48 91 1008.9
20260903201452 58 200 2.0 2.0 0.00 0.48 0.48 89 1009.2
20260903200951 58 237 0.0 0.0 0.00 0.48 0.48 96 1009.6
20260903200446 58 217 0.0 1.0 0.00 0.48 0.48 93 1009.6
20260903195941 59 304 1.0 1.0 0.00 0.48 0.48 91 1009.6
20260903195437 59 242 0.0 0.0 0.00 0.48 0.48 96 1009.2
20260903194932 58 226 0.0 1.0 0.00 0.48 0.48 94 1009.6
20260903194427 58 179 1.0 1.0 0.00 0.48 0.48 93 1009.2
20260903193922 58 234 0.0 0.0 0.00 0.48 0.48 98 1009.2
20260903193419 57 174 1.0 2.0 0.00 0.48 0.48 97 1009.2
20260903192914 57 230 0.0 1.0 0.00 0.48 0.48 98 1009.2
20260903192410 57 235 1.0 1.0 0.00 0.48 0.48 99 1009.2
20260903191906 57 271 0.0 0.0 0.07 0.48 0.48 99 1009.2
20260903191402 56 292 0.0 1.0 0.07 0.48 0.48 97 1009.2
20260903190901 57 260 0.0 0.0 0.00 0.47 0.47 96 1008.9
20260903190356 58 260 0.0 0.0 0.00 0.47 0.47 95 1008.9
20260903185855 58 259 0.0 0.0 0.00 0.47 0.47 91 1008.9
20260903185350 59 232 0.0 0.0 0.00 0.47 0.47 83 1008.9
20260903184846 59 235 0.0 0.0 0.00 0.47 0.47 87 1008.9
20260903184343 59 208 1.0 1.0 0.00 0.47 0.47 84 1008.9
20260903183843 59 238 0.0 0.0 0.00 0.47 0.47 93 1008.9
20260903183338 59 251 0.0 0.0 0.00 0.47 0.47 93 1008.9
20260903182837 59 264 0.0 0.0 0.00 0.47 0.47 94 1008.9
20260903182336 59 284 0.0 0.0 0.00 0.47 0.47 96 1008.9
20260903181831 59 182 1.0 2.0 0.00 0.47 0.47 93 1008.6
20260903181326 59 278 1.0 1.0 0.00 0.47 0.47 92 1008.9
20260903180825 59 342 1.0 1.0 0.00 0.47 0.47 91 1008.6
20260903180320 57 217 1.0 1.0 0.00 0.47 0.47 96 1008.6
20260903175819 58 264 0.0 0.0 0.00 0.47 0.47 99 1008.6
20260903175319 57 297 0.0 1.0 0.00 0.47 0.47 99 1008.9
20260903174814 57 220 0.0 1.0 0.00 0.47 0.47 99 1008.9
20260903174309 57 259 0.0 0.0 0.00 0.47 0.47 99 1008.6
20260903173808 56 195 1.0 2.0 0.00 0.47 0.47 97 1008.6
20260903173304 57 224 2.0 2.0 0.00 0.47 0.47 98 1008.6
20260903172800 57 185 2.0 2.0 0.00 0.47 0.47 99 1008.6
20260903172255 55 194 0.0 0.0 0.00 0.47 0.47 99 1008.2
20260903171749 55 204 1.0 1.0 0.00 0.47 0.47 99 1008.6
20260903171245 55 246 0.0 0.0 0.00 0.47 0.47 99 1008.6
20260903170744 54 251 0.0 0.0 0.00 0.47 0.47 99 1008.2
20260903170240 54 169 2.0 2.0 0.00 0.47 0.47 99 1008.2
20260903165738 54 209 1.0 1.0 0.00 0.47 0.47 99 1008.6
20260903165233 55 125 1.0 2.0 0.00 0.47 0.47 99 1008.6
20260903164727 55 207 1.0 1.0 0.00 0.47 0.47 99 1008.2
20260903164223 54 200 0.0 1.0 0.00 0.47 0.47 99 1008.2
20260903163722 54 203 1.0 2.0 0.00 0.47 0.47 99 1008.2
20260903163219 54 240 0.0 0.0 0.00 0.47 0.47 99 1008.2
20260903162715 54 229 1.0 2.0 0.00 0.47 0.47 99 1008.6
20260903162211 54 169 1.0 2.0 0.00 0.47 0.47 99 1008.2
20260903161706 54 240 0.0 0.0 0.00 0.47 0.47 99 1008.2
20260903161201 54 205 2.0 3.0 0.00 0.47 0.47 99 1008.6
20260903160657 54 233 0.0 1.0 0.00 0.47 0.47 99 1008.6
20260903160151 54 222 1.0 1.0 0.00 0.47 0.47 99 1008.6
20260903155649 54 254 0.0 0.0 0.00 0.47 0.47 99 1008.2
20260903155145 54 242 0.0 0.0 0.00 0.47 0.47 99 1008.6
20260903154641 54 241 0.0 0.0 0.00 0.47 0.47 99 1008.2
20260903154137 54 243 0.0 0.0 0.00 0.47 0.47 99 1008.2
20260903153632 54 242 0.0 0.0 0.00 0.47 0.47 99 1008.2
20260903153128 53 242 0.0 0.0 0.00 0.47 0.47 99 1008.2
20260903152624 53 242 0.0 0.0 0.00 0.47 0.47 99 1008.2
20260903152120 53 237 0.0 0.0 0.00 0.47 0.47 99 1008.2
20260903151619 53 258 0.0 0.0 0.00 0.47 0.47 99 1007.9
20260903151115 53 251 0.0 0.0 0.00 0.47 0.47 99 1007.9
20260903150614 53 251 0.0 0.0 0.00 0.47 0.47 99 1008.2
20260903150109 53 253 0.0 0.0 0.00 0.47 0.47 99 1007.9
20260903145608 53 247 0.0 0.0 0.00 0.47 0.47 99 1007.9
20260903145104 53 247 0.0 0.0 0.00 0.47 0.47 99 1008.2
20260903144603 53 246 0.0 0.0 0.00 0.47 0.47 99 1007.9
20260903144059 53 231 0.0 0.0 0.00 0.47 0.47 99 1007.9
20260903143555 53 232 0.0 0.0 0.00 0.47 0.47 99 1007.5
20260903143050 53 225 0.0 0.0 0.00 0.47 0.47 99 1007.9
20260903142545 53 231 0.0 0.0 0.00 0.47 0.47 99 1007.9
20260903142043 53 180 1.0 1.0 0.00 0.47 0.47 99 1007.9
20260903141538 53 234 0.0 1.0 0.00 0.47 0.47 99 1007.9
20260903141033 53 241 0.0 0.0 0.00 0.47 0.47 99 1007.9
20260903140529 52 205 1.0 1.0 0.00 0.47 0.47 99 1007.5
20260903140024 52 207 1.0 1.0 0.00 0.47 0.47 99 1007.5
20260903135519 52 172 1.0 1.0 0.00 0.47 0.47 99 1007.5
20260903135019 52 235 0.0 0.0 0.00 0.47 0.47 99 1007.5
20260903134519 52 251 0.0 0.0 0.00 0.47 0.47 99 1007.5
20260903134015 52 226 1.0 1.0 0.00 0.47 0.47 99 1007.5
20260903133512 52 235 0.0 0.0 0.00 0.47 0.47 99 1007.5
20260903133008 52 230 0.0 0.0 0.05 0.47 0.47 99 1007.2
20260903132502 52 256 0.0 0.0 0.12 0.47 0.47 99 1007.2
20260903131957 52 193 1.0 1.0 0.14 0.46 0.46 99 1007.5
20260903131452 52 231 0.0 1.0 0.12 0.45 0.45 99 1006.8
20260903130950 51 224 0.0 1.0 0.12 0.44 0.44 99 1007.2
20260903130446 52 242 0.0 0.0 0.19 0.43 0.43 99 1007.2
20260903125945 52 244 0.0 0.0 0.07 0.41 0.41 99 1007.2
20260903125439 51 247 0.0 0.0 0.00 0.40 0.40 99 1006.8
20260903124939 52 247 0.0 0.0 0.00 0.40 0.40 99 1007.2
20260903124434 52 255 0.0 0.0 0.00 0.40 0.40 99 1007.2
20260903123933 52 254 0.0 0.0 0.00 0.40 0.40 99 1006.8
20260903123428 52 254 0.0 0.0 0.05 0.40 0.40 99 1006.8
20260903122926 52 246 0.0 0.0 0.05 0.40 0.40 99 1006.8
20260903122421 52 232 0.0 0.0 0.07 0.39 0.39 99 1006.8
20260903121920 52 236 0.0 0.0 0.05 0.38 0.38 99 1006.8
20260903121415 52 260 0.0 0.0 0.00 0.37 0.37 99 1007.2
20260903120911 52 248 0.0 0.0 0.00 0.37 0.37 99 1007.2
20260903120410 52 237 0.0 0.0 0.00 0.37 0.37 99 1006.8
20260903115909 52 189 1.0 1.0 0.00 0.37 0.37 99 1006.8
20260903115403 52 256 0.0 0.0 0.00 0.37 0.37 99 1006.8
20260903114857 52 142 1.0 1.0 0.00 0.37 0.37 99 1006.8
20260903114353 52 231 0.0 0.0 0.00 0.37 0.37 99 1006.8
20260903113849 52 260 0.0 0.0 0.07 0.37 0.37 99 1006.8
20260903113344 52 227 0.0 0.0 0.07 0.37 0.37 99 1006.8
20260903112840 52 210 0.0 1.0 0.00 0.36 0.36 99 1006.8
20260903112336 52 249 0.0 0.0 0.00 0.36 0.36 99 1006.4
20260903111835 52 222 0.0 1.0 0.05 0.36 0.36 99 1006.8
20260903111334 52 223 0.0 1.0 0.05 0.36 0.36 99 1006.8
20260903110831 52 148 0.0 0.0 0.00 0.35 0.35 99 1006.4
20260903110321 52 242 0.0 0.0 0.00 0.35 0.35 99 1006.8
20260903105821 52 232 0.0 0.0 0.07 0.35 0.35 99 1006.8
20260903105315 52 240 0.0 0.0 0.07 0.35 0.35 99 1006.8
20260903104815 52 215 0.0 1.0 0.00 0.34 0.34 99 1006.8
20260903104310 52 194 3.0 3.0 0.00 0.34 0.34 99 1006.8
20260903103806 52 208 1.0 1.0 0.05 0.34 0.34 99 1006.8
20260903103302 52 209 0.0 0.0 0.12 0.34 0.34 99 1006.8
20260903102758 52 192 1.0 1.0 0.14 0.33 0.33 99 1006.8
20260903102252 52 199 1.0 1.0 0.12 0.32 0.32 99 1006.8
20260903101750 52 227 1.0 1.0 0.17 0.31 0.31 99 1006.4
20260903101247 52 301 0.0 0.0 0.24 0.30 0.30 99 1006.4
20260903100742 52 253 0.0 0.0 0.19 0.28 0.28 99 1006.4
20260903100242 52 263 0.0 0.0 0.07 0.26 0.26 99 1006.8
20260903095739 52 191 1.0 1.0 0.05 0.25 0.25 99 1006.8
20260903095234 52 253 0.0 0.0 0.35 0.25 0.25 99 1006.8
20260903094729 52 225 0.0 0.0 0.31 0.23 0.23 99 1006.8
20260903094224 52 217 0.0 1.0 0.07 0.19 0.19 99 1006.4
20260903093719 52 223 0.0 1.0 0.05 0.18 0.18 99 1006.4
20260903093215 52 216 1.0 1.0 0.19 0.17 0.17 99 1006.8
20260903092714 52 218 0.0 1.0 0.24 0.16 0.16 99 1006.4
20260903092209 52 231 0.0 0.0 0.17 0.14 0.14 99 1006.8
20260903091708 52 261 0.0 0.0 0.24 0.12 0.12 99 1006.8
20260903091203 53 246 0.0 0.0 0.17 0.10 0.10 99 1006.8
20260903090658 52 237 0.0 0.0 0.19 0.08 0.08 99 1006.8
20260903090156 52 272 0.0 0.0 0.19 0.07 0.07 99 1006.8
20260903085655 53 221 0.0 1.0 0.12 0.05 0.05 99 1006.8
20260903085151 53 224 0.0 0.0 0.19 0.04 0.04 99 1006.4
20260903084649 53 253 0.0 0.0 0.17 0.03 0.03 99 1006.8
20260903084143 53 236 0.0 0.0 0.05 0.01 0.01 99 1006.4
20260903083640 53 217 0.0 0.0 0.00 0.00 0.00 99 1006.8
20260903083139 53 249 0.0 0.0 0.00 0.00 0.00 99 1006.8
20260903082633 53 142 1.0 2.0 0.00 0.00 0.00 99 1006.4
20260903082130 53 242 0.0 0.0 0.00 0.00 0.00 99 1006.4
20260903081624 53 249 0.0 0.0 0.00 0.00 0.00 99 1006.4
20260903081119 53 231 0.0 0.0 0.00 0.00 0.00 99 1006.8
20260903080616 53 231 0.0 0.0 0.00 0.00 0.00 99 1006.1
20260903080108 53 261 0.0 0.0 0.00 0.00 0.00 99 1006.4
20260903075607 53 245 0.0 0.0 0.00 0.00 0.00 99 1006.4
20260903075102 53 248 0.0 0.0 0.00 0.00 0.00 99 1006.4
20260903074601 53 232 0.0 0.0 0.00 0.00 0.00 99 1006.4
20260903074056 53 231 0.0 0.0 0.00 0.00 0.00 99 1006.4
20260903073551 53 223 0.0 0.0 0.00 0.00 0.00 99 1006.4
20260903073047 53 223 0.0 0.0 0.00 0.00 0.00 99 1006.1
20260903072543 53 228 0.0 0.0 0.00 0.00 0.00 99 1006.4
20260903072039 53 263 0.0 0.0 0.00 0.00 0.00 99 1006.1
20260903071535 53 277 0.0 0.0 0.00 0.00 0.00 99 1006.1
20260903071030 53 233 0.0 0.0 0.00 0.00 0.00 99 1006.1
20260903070530 53 208 1.0 1.0 0.07 0.00 0.00 99 1006.1
20260903070026 53 249 0.0 0.0 0.07 0.00 0.00 99 1006.4
20260903065520 53 278 0.0 0.0 0.00 1.14 1.14 99 1006.1
20260903065019 53 282 0.0 0.0 0.00 1.14 1.14 99 1006.1
20260903064519 53 283 0.0 0.0 0.00 1.14 1.14 99 1006.4
20260903064015 53 246 0.0 0.0 0.24 1.14 1.14 99 1006.8
20260903063510 53 258 0.0 0.0 0.47 1.14 1.14 99 1006.4
20260903063005 53 252 0.0 0.0 0.28 1.09 1.09 99 1006.4
20260903062500 53 238 0.0 0.0 0.05 1.05 1.05 99 1006.4
20260903061955 53 258 0.0 0.0 0.00 1.04 1.04 99 1006.4
20260903061450 53 231 0.0 0.0 0.00 1.04 1.04 99 1006.4
20260903060946 53 285 0.0 0.0 0.00 1.04 1.04 99 1006.4
20260903060440 53 294 0.0 0.0 0.00 1.04 1.04 99 1006.4
20260903055939 54 276 0.0 0.0 0.00 1.04 1.04 99 1006.4
20260903055437 54 201 1.0 2.0 0.00 1.04 1.04 99 1006.4
20260903054936 54 280 0.0 0.0 0.00 1.04 1.04 99 1006.4
20260903054431 54 278 0.0 0.0 0.00 1.04 1.04 99 1006.4